International Telecommunication Union   ITU
عربي  |  中文  |  Español  |  Français  |  Русский
 
 Advanced Search Advanced Search Site map Contact us Print version
  Home : ITU-R : Space Services : SNL : Bringing into use
Radiocommunication Sector (ITU-R)  
Bringing into use of satellite network frequency assignments 
Bringing into use of satellite network frequency assignments

This table gives information about the date of bringing into use of planned and non-planned satellite network frequency assignments.

The notified frequency assignments appear in this list after their publication in Part I-S of the BR IFIC.

The Bureau is also publishing bringing into use information submitted in conjunction with a submission under § 4.1.12/4.2.16 of Appendices 30 and 30A (Part B) or § 6.17 of Appendix 30B (A6B).

Please note that this table is for information only. The official confirmation of bringing into use is the publication in PART I-S and PART II-S of the BR  IFIC.

For more information about the procedure of bringing into use, please refer to the Circular letter CR/343. 

Meaning of the symbol in the column "Status":

  N : Not yet confirmed, the date in the column "Date of bringing into use" is the foreseen date
  I : Initial information on bringing into use
  C : Confirmed brought into use, No. 11.44B conditions fullfilled.

For any comments or information,  please contact us 

Last update of the database: 21.06.2017 - The update is done normally every 2 weeks.

Your query :  All networks
Query the database  - Print version  - Explanations  - Export in txt format  - Export in Excel format 

Total line = 2200/2479
Go to page : 12345678910111213
Notice ID
(SNS)
Satellite Name
(SNL Part B)
ADMORGLong_nomDate of bringing
into use
StatusExpiry Date for
Bringing Into Use
Provision
up down up down up down  up down up down up down up down up down 
115500118 SAUDISAT-4  ARS  N-GSO 04.11.2013 C  11.2  
114500018 MMI  IND  N-GSO 05.11.2013 C  11.2  
111500157 VNREDSAT-1  VTN  N-GSO 14.11.2013 N 19.08.2017 11.2  
111500006 CONNECT  USA  N-GSO 15.11.2013 C  11.2  
112500284 MAVEN  USA  N-GSO 18.11.2013 C  11.2  
109500632 DUBAISAT-2  UAE  N-GSO 21.11.2013 C  11.2  
113500189 STSAT-3  KOR  N-GSO 21.11.2013 C  11.2  
113500181 DELFI-N3XT  HOL  N-GSO 21.11.2013 N 24.01.2019 11.2  
111500274 PRISM2  J   N-GSO 21.11.2013 C  11.2  
110500283 KOMPSAT-5  KOR  N-GSO 22.11.2013 C  11.2  
110500003 SWARM  F  ESA N-GSO 22.11.2013 C  11.2  
113500034 LUNAR LANDER  CHN  N-GSO 01.12.2013 N 05.07.2017 11.2  
113500035 LUNAR ROVER  CHN  N-GSO 01.12.2013 N 05.07.2017 11.2  
113500145 HODOYOSHI  J   N-GSO 01.12.2013 N 23.06.2018 11.2  
113500156 TSUBAME  J   N-GSO 01.12.2013 N 02.09.2017 11.2  
113500124 CHUBUSAT-1  J   N-GSO 01.12.2013 N 08.08.2018 11.2  
113500150 BRITE-PL  POL  N-GSO 01.12.2013 C  11.2  
111500196 GAIA  F  ESA N-GSO 19.12.2013 C  11.2  
114500037 AMS-4-65E  ISR  65 23.12.2013 C  11.2  
114560005 USABSS-29  USA  85.15 30.12.2013 C  5.1.2  
113500090 GC-2  CHN  N-GSO 31.12.2013 N 26.04.2019 11.2  
115500017 INDOSTAR-110E  INS  108.2 01.01.2014 C  11.2  
115500018 INMARSAT-4A 25E  G   25 07.01.2014 C  11.2  
113500185 LITUANICASAT-1  LTU  N-GSO 15.01.2014 N 06.02.2020 11.2  
115500133 PALAPA-C4-A  INS  150.5 20.01.2014 C  11.2  
112500225 OPTOS  E   N-GSO 02.02.2014 C  11.2  
316500190 USASAT-30F  USA  N-GSO 11.02.2014 C  11.2  
113500188 ITF-1  J   N-GSO 14.02.2014 N 20.10.2018 11.2  
114500078 INMARSAT-4A 98W  G   -98 17.02.2014 C  11.2  
115500221 INMARSAT-4A 143.5E  G   143.5 19.02.2014 C  11.2  
115500113 IOMSAT-KA-63W  G   -63 19.02.2014 C  11.2  
115500041 TURKSAT-50E-B  TUR  50 23.02.2014 C  11.2  
115500072 UKSAT-14  G   -107 23.02.2014 C  11.2  
114500042 CHINASAT-ROUTE8  CHN  125 26.02.2014 C  11.2  
111500016 GPM  USA  N-GSO 27.02.2014 C  11.2  
114560008 USAT-S3 MOD-C  G   -86.5 27.02.2014 C  5.1.2/5.1.6  
112500082 TDRS 167.5W  USA  -167.5 27.02.2014 C  11.2  
112500260 USNN-4  USA  100 27.02.2014 C  11.2  
114500045 LITSAT-1  LTU  N-GSO 28.02.2014 N 23.07.2020 11.2  
114500033 DX1  RUS  N-GSO 28.02.2014 C  11.2  
114500079 IRIS-2A  USA  -100 01.03.2014 C  11.2  
117500026 PACIFISAT-6  PNG  63 09.03.2014 C  11.2  
114570002 EUTELSAT EXB-13E  F  EUT 13 10.03.2014 C  A30B#8.1  
114570003 EUTELSAT EXB-70.5E  F  EUT 70.5 10.03.2014 C  A30B#8.1  
114500052 SOCRATES  J   N-GSO 31.03.2014 C  11.2  
112560010 INTERSPUTNIK-74.9E-B  RUS IK  74.9 01.04.2014 C  5.1.2  
112560011 INTERSPUTNIK-74.9E-B  RUS IK  74.9 01.04.2014 C  5.1.6  
112500130 JASON3  F   N-GSO 01.04.2014 N 22.12.2018 11.2  
115500100 UKDSAT-A2  G   -33.5 02.04.2014 C  11.2  
311500003 SENTINEL-1  F  ESA N-GSO 03.04.2014 C  11.2  
114500074 QB50P  BEL  N-GSO 14.04.2014 C  11.2  
114500101 CANSAT-50  CAN  -107.3 15.04.2014 C  11.2  
114500102 CAN-BSS36  CAN  -107.3 16.04.2014 C  11.2  
112500064 EXPRESS-10KA  RUS  140 22.04.2014 C  11.2  
113560001 RST-2A  RUS  56 22.04.2014 C  5.1.2  
113560002 RST-2A  RUS  56 22.04.2014 C  5.1.6  
114570005 EXPRESS-10P  RUS  140 22.04.2014 C  A30B#8.1  
113570010 CSDRN-M  RUS  95 28.04.2014 C  A30B#8.1  
112500082 TDRS 167.5W  USA  -167.5 29.04.2014 C  11.2  
114500027 HODOYOSHI-3-4  J   N-GSO 01.05.2014 N 28.12.2019 11.2  
112500175 TOLU-1  IRN  N-GSO 01.05.2014 N 06.04.2018 11.2  
116500163 YAHSAT-63E  UAE  63 04.05.2014 C  11.2  
115500129 CAN-BSS31  CAN  -91 22.05.2014 C  11.2  
113500030 ALOS-2  J   N-GSO 24.05.2014 C  11.2  
105500223 DRTS-90.75E  J   90.75 24.05.2014 C  11.2  
317500073 SICRAL-4-21.8E  I   21.8 29.05.2014 C  11.2  
116500148 B-SAT-2N  B   -84 01.06.2014 C  11.2  
115500161 YAHSAT-KA-47.5E  UAE  47.5 04.06.2014 C  11.2  
114560011 USABSS-26  USA  -110 08.06.2014 C  5.1.2/5.1.6  
114560009 RST-5  RUS  140 10.06.2014 C  5.1.2  
114560010 RST-5  RUS  140 10.06.2014 C  5.1.6  
90500256 STATSIONAR-20  RUS  70 12.06.2014 C  11.2  
114500196 TURKSAT-42E-B  TUR  42 13.06.2014 C  11.2  
116500168 QUETZSAT-77 TTC  MEX  -77 18.06.2014 C  11.2  
115500029 UNISAT-6  I   N-GSO 19.06.2014 C  11.2  
315500151 UKSAT-KU-4  G   -76 23.06.2014 C  11.2  
116500218 CANSAT-49  CAN  -109.2 25.06.2014 C  11.2  
114570007 EUTELSAT EXB-7E  F  EUT 25.06.2014 C  A30B#8.1  
317500006 NSS-G2-18  HOL  95 29.06.2014 C  11.2  
117500029 INMARSAT-KA 63E  G   63 01.07.2014 C  11.2  
316500254 NSS-83A  HOL  -67.5 02.07.2014 C  11.2  
111500081 OCO-2  USA  N-GSO 02.07.2014 C  11.2  
111500082 MKA-FKI  RUS  N-GSO 08.07.2014 C  11.2  
114560012 UKDIGISAT-4A  G   -33.5 08.07.2014 C  5.1.2  
114560014 EMARSAT-1  UAE  52.5 23.07.2014 C  5.1.2  
114560015 EMARSAT-1  UAE  52.5 23.07.2014 C  5.1.6  
114500146 F-SAT-N-E-8W  F   -8 28.07.2014 C  11.2  
114560013 EOE-BSS-2007  NOR  -0.8 31.07.2014 C  5.1.2  
116500094 EMARSAT-7S  UAE  98.5 01.08.2014 C  11.2  
114500011 DZZ-HR  KAZ  N-GSO 01.08.2014 C  11.2  
114560017 USAT-S3 MOD-D  G   -86.5 07.08.2014 C  5.1.2/5.1.6  
114500100 YAHSAT-60E  UAE  60 12.08.2014 C  11.2  
114500163 USGOVSAT-6R  USA  -52.5 14.08.2014 C  11.2  
114500150 LUX-G6-5  LUX  19.2 15.08.2014 C  11.2  
116500087 LUX-G6-8  LUX  28.2 15.08.2014 C  11.2  
114500153 LUX-G6-9  LUX  31.5 15.08.2014 C  11.2  
316500254 NSS-83A  HOL  -67.5 21.08.2014 C  11.2  
114500032 AALTO-1  FIN  N-GSO 01.09.2014 N 16.10.2020 11.2  
115560001 UKDIGISAT-4A  G   -33.5 08.09.2014 C  5.1.6  
316500227 MEASAT-1A  MLA  91.5 15.09.2014 C  11.2  
115570001 MEASAT-91.5E-30B  MLA  91.5 15.09.2014 C  A30B#8.1  
114560016 MEASAT-91.5E-BSS  MLA  91.5 15.09.2014 C  5.1.6  
115500229 ASIASAT-120V  CHN  120 15.09.2014 C  11.2  
116500167 DRN-P2B  F   21.5 25.09.2014 C  11.2  
113500147 DZZ-MR  KAZ  N-GSO 01.10.2014 C  11.2  
116500102 INSAT-KU11(55)E  IND  55 05.10.2014 C  11.2  
115500014 USGOVSAT-3R  USA  -135 14.10.2014 C  11.2  
117500079 HIMAWARI-140E  J   140.7 16.10.2014 C  11.2  
317500077 HIMAWARI-8-140E  J   140.7 16.10.2014 C  11.2  
115500028 TECHDEMOSAT-1  G   N-GSO 22.10.2014 C  11.2  
115500038 ATHENA-FIDUS-38E  F   38 22.10.2014 C  11.2  
115500012 PACIFISAT-9  PNG  116.1 25.10.2014 C  11.2  
316500036 PACIFISAT-1  PNG  75 30.10.2014 C  11.2  
115500119 SAUDISAT-5  ARS  N-GSO 03.11.2014 C  11.2  
115500120 SAUDISAT-6  ARS  N-GSO 03.11.2014 C  11.2  
113500123 QSAT  J   N-GSO 06.11.2014 C  11.2  
112500154 ASNARO  J   N-GSO 06.11.2014 C  11.2  
114500076 INMARSAT-XL1  G   25 20.11.2014 C  11.2  
113500214 USGAE-7M  USA  -68 23.11.2014 C  11.2  
112500191 USASAT-28N  USA  -116.15 25.11.2014 C  11.2  
112500061 RADARSAT-3B  CAN  N-GSO 01.12.2014 N 15.06.2018 11.2  
116500037 PACIFISAT KA-75E  PNG  75 01.12.2014 C  11.2  
112500176 GOKTURK-1  TUR  N-GSO 01.12.2014 N 05.05.2017 11.2  
116500120 ST-2A-CK  SNG  88 02.12.2014 C  11.2  
114500084 HAYABUSA2  J   N-GSO 03.12.2014 C  11.2  
112500236 EXPRESS-6KA  RUS  80 03.12.2014 C  11.2  
113500041 KOMPSAT-3A  KOR  N-GSO 05.12.2014 N 04.04.2019 11.2  
111500079 ISS-USOS-RPOD  USA  N-GSO 05.12.2014 C  11.2  
112500199 ORION  USA  N-GSO 05.12.2014 C  11.2  
112500082 TDRS 167.5W  USA  -167.5 05.12.2014 C  11.2  
116500115 PACIFISAT-5  PNG  61 07.12.2014 C  11.2  
113570005 YAMAL-PK4  RUS  90 15.12.2014 C  A30B#8.1  
115570002 YAMAL-FSS-90E  RUS  90 15.12.2014 C  A30B#8.1  
111500072 PAKSAT-1R1  PAK  38 01.01.2015 C  11.2  
115500002 PAZ  E   N-GSO 01.01.2015 C  11.2  
111500243 CSDRN-M  RUS  95 01.01.2015 C  11.2  
111500244 WSDRN-M  RUS  -16 01.01.2015 C  11.2  
112500228 VSSRD-2M  RUS  167 01.01.2015 C  11.2  
311500304 AUSSAT D 160E FSS  AUS  160 04.01.2015 C  11.2  
115560002 DBL-G4-21.5E  LUX  21.5 06.01.2015 C  5.1.2  
316500248 FYGEOSAT-99.5E  CHN  99.5 06.01.2015 C  11.2  
115560012 PACIFISAT BSS-67E  PNG  67 15.01.2015 C  5.1.2  
115560013 PACIFISAT BSS-67E  PNG  67 15.01.2015 C  5.1.6  
113500001 TARANIS  F   N-GSO 15.01.2015 N 17.04.2019 11.2  
112500032 SMAP  USA  N-GSO 31.01.2015 C  11.2  
116500116 PACIFISAT-3  PNG  67 01.02.2015 C  11.2  
113500152 ISS RAPIDSCAT  USA  N-GSO 01.02.2015 N 19.12.2019 11.2  
115560007 PACIFISAT BSSA-61E  PNG  61 03.02.2015 C  5.1.2  
115560008 PACIFISAT BSS-61E  PNG  61 04.02.2015 C  5.1.2  
115500028 TECHDEMOSAT-1  G   N-GSO 11.02.2015 C  11.2  
115570005 LUX-30B-G4-23.5E  LUX  23.5 25.02.2015 C  A30B#8.1  
115560009 AFRISAT BSS-3W  PNG  -3 25.02.2015 C  5.1.2  
113500044 ARABSAT 7F-44.5E  ARS ARB 44.5 27.02.2015 C  11.2  
115570003 ARABSAT-AXB44.5E  ARS ARB 44.5 27.02.2015 C  A30B#8.1  
113500053 SENTINEL-5P  F  ESA N-GSO 01.03.2015 N 10.07.2019 11.2  
110500294 MMS  USA  N-GSO 12.03.2015 C  11.2  
316500050 USABSN-13A  USA  -99 18.03.2015 C  11.2  
116500247 APSTAR-76E-R  CHN  76.5 07.04.2015 C  11.2  
116500026 APSTAR-142E-R  CHN  142 07.04.2015 C  11.2  
115570007 YAMAL-FSS-55E  RUS  55 19.04.2015 C  A30B#8.1  
112500235 EXPRESS-5KA  RUS  53 22.04.2015 C  11.2  
114570006 EXPRESS-5P  RUS  53 22.04.2015 C  A30B#8.1  
316500265 EXPRESS-4B  RUS  40 24.04.2015 C  11.2  
115570006 EXPRESS-4P  RUS  40 24.04.2015 C  A30B#8.1  
317500030 YAHSAT-N-20W  UAE  -20 27.04.2015 C  11.2  
115560010 YAHSAT-BSS-60E  UAE  60 04.05.2015 C  5.1.2  
115560011 YAHSAT-BSS-60E  UAE  60 04.05.2015 C  5.1.6  
114500097 HISPASAT 2A 36W  E   -36 05.05.2015 C  11.2  
114500025 POTOK-ISS  RUS  N-GSO 15.05.2015 N 13.12.2018 11.2  
116500320 PACIFISAT C/KU-2  PNG  159 26.05.2015 C  11.2  
113500184 TDRS 12W-R  USA  -12 01.06.2015 C  11.2  
115500007 VENTA-1  LVA  N-GSO 01.06.2015 N 19.10.2019 11.2  
115500214 P-197-7  USA  92 07.06.2015 C  11.2  
115500194 HAYABUSA2SN  J   N-GSO 18.06.2015 C  11.2  
111500004 SENTINEL-2  F  ESA N-GSO 23.06.2015 C  11.2  
116500238 NSS-G3-8  HOL  -47.5 24.06.2015 C  11.2  
115500157 NSS-G2-1  HOL  -177 28.06.2015 C  11.2  
317500006 NSS-G2-18  HOL  95 28.06.2015 C  11.2  
117500005 NSS-G2-16  HOL  50.5 28.06.2015 C  11.2  
117500013 NSS-G2-17  HOL  57 28.06.2015 C  11.2  
117500072 CANSAT(107.3W)-XKA  CAN  -107.3 28.06.2015 C  11.2  
317500048 P92-7  USA  -30.4 01.07.2015 C  11.2  
117500108 BIFROST-0.8W-2010  NOR  -0.8 02.07.2015 C  11.2  
115500089 F-SAT-B1-E-3E  F   03.07.2015 C  11.2  
115570008 SIRIUS-30B-5E-4  S   10.07.2015 C  A30B#8.1  
115570009 LUX-30B-G4-19.2E  LUX  19.2 14.07.2015 C  A30B#8.1  
116500080 GC-3  CHN  N-GSO 15.07.2015 C  11.2  
115570010 LUX-30B-G4-28.2E  LUX  28.2 19.07.2015 C  A30B#8.1  
115560018 PACIFISAT BSS-116.1E  PNG  116.1 20.07.2015 C  5.1.2  
115560019 PACIFISAT BSS-116.1E  PNG  116.1 20.07.2015 C  5.1.6  
115570008 SIRIUS-30B-5E-4  S   22.07.2015 C  A30B#8.1  
117500127 INSAT-NAVR(83)  IND  83 26.07.2015 C  11.2  
117500065 NSS-G2-11  HOL  -22 28.07.2015 C  11.2  
115560020 INTERSPUTNIK-17E-B  RUS IK  17 30.07.2015 C  5.1.2  
115560021 INTERSPUTNIK-17E-B  RUS IK  17 30.07.2015 C  5.1.6  
115500208 FYGEOSAT-105E  CHN  105 01.08.2015 C  11.2  
114500155 MTG-D1_3.4W  D  EUM -3.4 02.08.2015 C  11.2  
115500189 DMC3  G   N-GSO 10.08.2015 C  11.2  
114500126 P92-8  USA  92 11.08.2015 C  11.2  
Total line = 2200/2479
Go to page : 12345678910111213

 

Top - Feedback - Contact us -  Copyright © ITU 2017 All Rights Reserved
Contact for this page : Webmaster
Updated : 2017-06-24